GW2877 Weather Reports


time (UTC)temp
C
wind
direction
speed
KPH
gust
KPH
rain 1hr
cm
rain 24hr
cm
rain mn
cm
humidity
%
barometer
mb
20260506233059 13 243 1.6 6.4 0.00 0.00 0.00 82 1022.4
20260506232545 13 315 1.6 6.4 0.00 0.00 0.00 82 1022.4
20260506232045 13 276 1.6 6.4 0.00 0.00 0.00 83 1022.3
20260506231553 13 325 3.2 4.8 0.00 0.00 0.00 83 1022.4
20260506231047 13 316 1.6 4.8 0.00 0.00 0.00 81 1022.5
20260506230545 13 0 1.6 6.4 0.00 0.00 0.00 82 1022.6
20260506225548 13 222 0.0 4.8 0.00 0.00 0.00 82 1022.7
20260506225044 13 277 1.6 4.8 0.00 0.00 0.00 82 1022.7
20260506224558 13 254 1.6 3.2 0.00 0.00 0.00 81 1022.7
20260506224043 13 274 0.0 3.2 0.00 0.00 0.00 82 1022.7
20260506223600 13 137 1.6 8.0 0.00 0.00 0.00 82 1022.9
20260506223053 13 231 1.6 6.4 0.00 0.00 0.00 81 1022.8
20260506222543 13 242 1.6 6.4 0.00 0.00 0.00 81 1022.9
20260506222043 13 294 0.0 3.2 0.00 0.00 0.00 81 1022.8
20260506221551 13 295 0.0 3.2 0.00 0.00 0.00 80 1022.8
20260506221043 13 309 0.0 1.6 0.00 0.00 0.00 80 1022.8
20260506220543 13 0 0.0 3.2 0.00 0.00 0.00 80 1022.8
20260506220053 13 304 0.0 4.8 0.00 0.00 0.00 80 1022.8
20260506215546 13 229 1.6 4.8 0.00 0.00 0.00 80 1022.7
20260506215042 13 0 1.6 4.8 0.00 0.00 0.00 80 1022.8
20260506214602 14 290 0.0 3.2 0.00 0.00 0.00 80 1022.8
20260506214043 14 286 0.0 3.2 0.00 0.00 0.00 79 1022.8
20260506213543 14 232 0.0 3.2 0.00 0.00 0.00 79 1022.7
20260506213051 14 229 0.0 3.2 0.00 0.00 0.00 79 1022.7
20260506212542 14 0 0.0 3.2 0.00 0.00 0.00 78 1022.7
20260506212043 14 0 0.0 3.2 0.00 0.00 0.00 79 1022.7
20260506211556 14 168 0.0 4.8 0.00 0.00 0.00 79 1022.7
20260506211043 14 159 0.0 4.8 0.00 0.00 0.00 78 1022.7
20260506210543 14 165 0.0 4.8 0.00 0.00 0.00 79 1022.6
20260506210057 14 219 0.0 3.2 0.00 0.00 0.00 79 1022.5
20260506205543 14 242 0.0 6.4 0.00 0.00 0.00 79 1022.5
20260506205043 14 169 1.6 6.4 0.00 0.00 0.00 78 1022.5
20260506204556 14 183 0.0 3.2 0.00 0.00 0.00 79 1022.5
20260506204042 14 150 0.0 3.2 0.00 0.00 0.00 79 1022.4
20260506203546 14 218 0.0 3.2 0.00 0.00 0.00 79 1022.4
20260506203052 14 179 0.0 3.2 0.00 0.00 0.00 80 1022.4
20260506202544 14 177 0.0 1.6 0.00 0.00 0.00 80 1022.5
20260506202044 14 0 0.0 1.6 0.00 0.00 0.00 80 1022.5
20260506201551 13 167 0.0 4.8 0.00 0.00 0.00 80 1022.5
20260506201042 13 0 1.6 4.8 0.00 0.00 0.00 80 1022.6
20260506200545 13 236 0.0 6.4 0.00 0.00 0.00 79 1022.6
20260506200101 13 240 0.0 6.4 0.00 0.00 0.00 80 1022.5
20260506195543 13 170 1.6 3.2 0.00 0.00 0.00 79 1022.5
20260506195046 14 0 0.0 3.2 0.00 0.00 0.00 80 1022.6
20260506194556 13 189 0.0 4.8 0.00 0.00 0.00 80 1022.6
20260506194043 13 183 0.0 4.8 0.00 0.00 0.00 80 1022.4
20260506193544 13 173 0.0 4.8 0.00 0.00 0.00 81 1022.4
20260506193056 13 0 0.0 6.4 0.00 0.00 0.00 80 1022.5
20260506192542 13 258 1.6 4.8 0.00 0.00 0.00 80 1022.4
20260506192046 13 242 0.0 4.8 0.00 0.00 0.00 81 1022.4
20260506191605 13 0 0.0 4.8 0.00 0.00 0.00 81 1022.3
20260506191042 13 227 1.6 4.8 0.00 0.00 0.00 81 1022.3
20260506190542 13 225 0.0 4.8 0.00 0.00 0.00 81 1022.3
20260506190049 13 200 1.6 4.8 0.00 0.00 0.00 81 1022.3
20260506185542 13 196 1.6 6.4 0.00 0.00 0.00 81 1022.2
20260506185042 13 217 1.6 6.4 0.00 0.00 0.00 82 1022.4
20260506184552 13 144 0.0 4.8 0.00 0.00 0.00 81 1022.4
20260506184043 13 175 0.0 4.8 0.00 0.00 0.00 82 1022.4
20260506183544 13 203 0.0 4.8 0.00 0.00 0.00 82 1022.3
20260506183056 13 165 0.0 3.2 0.00 0.00 0.00 82 1022.1
20260506182542 13 0 1.6 3.2 0.00 0.00 0.00 82 1022.1
20260506182042 13 168 0.0 3.2 0.00 0.00 0.00 83 1022.1
20260506181559 13 0 0.0 4.8 0.00 0.00 0.00 83 1021.9
20260506181043 13 182 0.0 4.8 0.00 0.00 0.00 83 1022.0
20260506180543 13 0 0.0 3.2 0.00 0.00 0.00 84 1022.2
20260506180111 13 151 0.0 3.2 0.00 0.00 0.00 84 1022.2
20260506175543 13 177 0.0 3.2 0.00 0.00 0.00 83 1022.2
20260506175042 13 0 0.0 3.2 0.00 0.00 0.00 85 1022.1
20260506174553 13 0 0.0 3.2 0.00 0.00 0.00 85 1022.0
20260506174042 13 159 0.0 3.2 0.00 0.00 0.00 85 1022.0
20260506173542 13 0 0.0 1.6 0.00 0.00 0.00 86 1021.9
20260506173124 12 214 0.0 1.6 0.00 0.00 0.00 85 1021.8
20260506172542 12 0 0.0 4.8 0.00 0.00 0.00 86 1021.8
20260506172043 12 249 0.0 4.8 0.00 0.00 0.00 85 1021.7
20260506171554 12 243 0.0 4.8 0.00 0.00 0.00 85 1021.9
20260506171041 12 252 0.0 1.6 0.00 0.00 0.00 86 1021.6
20260506170546 12 251 0.0 1.6 0.00 0.00 0.00 86 1021.6
20260506170059 12 222 0.0 1.6 0.00 0.00 0.00 87 1021.6
20260506165542 12 215 0.0 1.6 0.00 0.00 0.00 87 1021.7
20260506165043 12 0 0.0 1.6 0.00 0.00 0.00 87 1021.5
20260506164551 12 206 0.0 1.6 0.00 0.00 0.00 88 1021.5
20260506164042 12 0 0.0 1.6 0.00 0.00 0.00 88 1021.4
20260506163543 12 198 0.0 0.0 0.00 0.00 0.00 89 1021.5
20260506163100 12 0 0.0 0.0 0.00 0.00 0.00 89 1021.3
20260506162542 12 0 0.0 1.6 0.00 0.00 0.00 89 1021.3
20260506162043 12 0 0.0 1.6 0.00 0.00 0.00 90 1021.4
20260506161555 12 0 0.0 1.6 0.00 0.00 0.00 89 1021.5
20260506161045 12 244 0.0 3.2 0.00 0.00 0.00 89 1021.5
20260506160543 12 248 0.0 3.2 0.00 0.00 0.00 89 1021.3
20260506160051 12 196 0.0 1.6 0.00 0.00 0.00 90 1021.4
20260506155545 12 0 0.0 1.6 0.00 0.00 0.00 90 1021.2
20260506155044 12 0 0.0 4.8 0.00 0.00 0.00 90 1021.3
20260506154552 11 223 0.0 4.8 0.00 0.00 0.00 91 1021.3
20260506154043 11 260 0.0 4.8 0.00 0.00 0.00 91 1021.3
20260506153542 11 193 0.0 1.6 0.00 0.00 0.00 91 1021.3
20260506153049 11 0 0.0 1.6 0.00 0.00 0.00 91 1020.9
20260506152543 11 258 0.0 1.6 0.00 0.00 0.00 91 1021.2
20260506152043 11 230 0.0 1.6 0.00 0.00 0.00 92 1021.1
20260506151551 11 185 0.0 3.2 0.00 0.00 0.00 92 1020.9
20260506151043 11 0 0.0 4.8 0.00 0.00 0.00 92 1020.8
20260506150543 11 196 0.0 4.8 0.00 0.00 0.00 93 1020.8
20260506150046 11 239 0.0 1.6 0.00 0.00 0.00 93 1020.8
20260506145543 11 0 0.0 0.0 0.00 0.00 0.00 93 1020.6
20260506145042 11 0 0.0 0.0 0.00 0.00 0.00 93 1020.5
20260506144602 11 0 0.0 1.6 0.00 0.00 0.00 93 1020.5
20260506144043 11 0 0.0 1.6 0.00 0.00 0.00 93 1020.5
20260506143543 11 0 0.0 1.6 0.00 0.00 0.00 94 1020.5
20260506143050 11 293 0.0 1.6 0.00 0.00 0.00 94 1020.5
20260506142543 11 293 0.0 1.6 0.00 0.00 0.00 94 1020.6
20260506142047 11 293 0.0 1.6 0.00 0.00 0.00 94 1020.8
20260506141551 11 0 0.0 1.6 0.00 0.00 0.00 94 1020.6
20260506141043 11 0 0.0 0.0 0.00 0.00 0.00 93 1020.6
20260506140543 11 0 0.0 0.0 0.00 0.00 0.00 93 1021.0
20260506140120 11 0 0.0 0.0 0.00 0.00 0.00 93 1021.1
20260506135543 11 0 0.0 0.0 0.00 0.03 0.00 93 1021.0
20260506135043 11 0 0.0 0.0 0.00 0.03 0.00 93 1021.1
20260506134554 11 0 0.0 0.0 0.00 0.03 0.00 93 1020.9
20260506134043 11 0 0.0 0.0 0.00 0.03 0.00 93 1020.9
20260506133543 11 0 0.0 0.0 0.00 0.03 0.00 93 1020.8
20260506133053 11 0 0.0 0.0 0.00 0.03 0.00 93 1020.8
20260506132543 11 0 0.0 0.0 0.00 0.03 0.00 93 1020.6
20260506132043 11 0 0.0 0.0 0.00 0.03 0.00 93 1020.5
20260506131557 11 0 0.0 0.0 0.00 0.03 0.00 93 1020.5
20260506131043 11 0 0.0 0.0 0.00 0.03 0.00 93 1020.5
20260506130543 11 0 0.0 0.0 0.00 0.03 0.00 93 1020.5
20260506130050 11 0 0.0 0.0 0.00 0.03 0.00 93 1020.4
20260506125543 11 0 0.0 0.0 0.00 0.03 0.00 93 1020.5
20260506125046 11 157 0.0 0.0 0.00 0.03 0.00 93 1020.4
20260506124551 11 157 0.0 0.0 0.00 0.03 0.00 93 1020.3
20260506124045 11 0 0.0 0.0 0.00 0.03 0.00 93 1020.1
20260506123543 11 0 0.0 0.0 0.00 0.03 0.00 93 1020.1
20260506123051 11 0 0.0 0.0 0.00 0.03 0.00 93 1020.2
20260506122543 11 0 0.0 0.0 0.00 0.03 0.00 93 1020.1
20260506122045 11 0 0.0 0.0 0.00 0.03 0.00 93 1020.0
20260506121554 11 0 0.0 0.0 0.00 0.03 0.00 92 1020.1
20260506121043 11 0 0.0 0.0 0.00 0.03 0.00 92 1019.9
20260506120544 11 0 0.0 0.0 0.00 0.03 0.00 92 1019.9
20260506120053 11 0 0.0 0.0 0.00 0.03 0.00 92 1019.9
20260506115546 11 0 0.0 0.0 0.00 0.03 0.00 92 1019.9
20260506115042 11 0 0.0 0.0 0.00 0.03 0.00 92 1019.9
20260506114550 11 0 0.0 0.0 0.00 0.03 0.00 92 1019.9
20260506114043 11 0 0.0 0.0 0.00 0.03 0.00 92 1019.9
20260506113542 11 0 0.0 0.0 0.00 0.03 0.00 92 1019.8
20260506113052 11 0 0.0 0.0 0.00 0.03 0.00 92 1019.6
20260506112546 11 157 0.0 0.0 0.00 0.03 0.00 92 1019.6
20260506112044 11 0 0.0 0.0 0.00 0.03 0.00 92 1019.8
20260506111558 11 0 0.0 0.0 0.00 0.03 0.00 92 1019.9
20260506111043 11 0 0.0 0.0 0.00 0.03 0.00 92 1019.9
20260506110543 11 0 0.0 0.0 0.00 0.03 0.00 92 1019.8
20260506110054 11 0 0.0 0.0 0.00 0.03 0.00 92 1019.8
20260506105548 11 0 0.0 0.0 0.00 0.03 0.00 92 1019.9
20260506105046 11 0 0.0 0.0 0.00 0.03 0.00 91 1019.7
20260506104600 11 0 0.0 0.0 0.00 0.03 0.00 91 1019.7
20260506104042 11 0 0.0 0.0 0.00 0.03 0.00 91 1019.7
20260506103543 11 0 0.0 0.0 0.00 0.03 0.00 91 1019.6
20260506103051 11 0 0.0 0.0 0.00 0.03 0.00 91 1019.6
20260506102544 11 0 0.0 0.0 0.00 0.03 0.00 91 1019.6
20260506102043 11 0 0.0 0.0 0.00 0.03 0.00 91 1019.4
20260506101555 11 0 0.0 0.0 0.00 0.03 0.00 91 1019.4
20260506101047 11 0 0.0 0.0 0.00 0.03 0.00 91 1019.5
20260506100543 11 0 0.0 0.0 0.00 0.03 0.00 91 1019.5
20260506095545 11 0 0.0 0.0 0.00 0.03 0.00 91 1019.5
20260506095047 11 0 0.0 0.0 0.00 0.03 0.00 90 1019.4
20260506094605 11 0 0.0 0.0 0.00 0.03 0.00 90 1019.5
20260506094042 11 0 0.0 0.0 0.00 0.03 0.00 90 1019.4
20260506093545 11 0 0.0 0.0 0.00 0.03 0.00 90 1019.3
20260506093055 11 0 0.0 0.0 0.00 0.03 0.00 90 1019.3
20260506092543 11 0 0.0 0.0 0.00 0.03 0.00 90 1019.2
20260506092045 12 0 0.0 0.0 0.00 0.03 0.00 89 1019.2
20260506091553 12 0 0.0 0.0 0.00 0.03 0.00 90 1018.9
20260506091043 12 0 0.0 0.0 0.00 0.03 0.00 89 1018.9
20260506090543 12 0 0.0 0.0 0.00 0.03 0.00 89 1018.9
20260506090054 12 0 0.0 0.0 0.00 0.03 0.00 89 1018.9
20260506085542 12 0 0.0 0.0 0.00 0.03 0.00 89 1018.9
20260506085046 12 0 0.0 0.0 0.00 0.03 0.00 89 1019.0
20260506084555 12 0 0.0 0.0 0.00 0.03 0.00 89 1018.9
20260506084044 12 0 0.0 0.0 0.00 0.03 0.00 89 1018.9
20260506083546 12 0 0.0 0.0 0.00 0.03 0.00 89 1018.8
20260506083058 12 0 0.0 0.0 0.00 0.03 0.00 89 1018.8
20260506082543 12 0 0.0 0.0 0.00 0.03 0.00 89 1018.8
20260506082043 12 0 0.0 0.0 0.00 0.03 0.00 89 1018.8
20260506081554 12 0 0.0 0.0 0.00 0.03 0.00 89 1018.7
20260506081043 12 0 0.0 0.0 0.00 0.03 0.00 89 1018.8
20260506080546 12 0 0.0 0.0 0.00 0.03 0.00 89 1018.7
20260506080107 12 0 0.0 0.0 0.00 0.03 0.00 89 1018.6
20260506073102 12 0 0.0 0.0 0.00 0.03 0.00 90 1018.2
20260506072543 12 0 0.0 0.0 0.00 0.03 0.00 90 1018.2
20260506072041 12 0 0.0 0.0 0.00 0.03 0.00 90 1018.1
20260506071551 12 0 0.0 0.0 0.00 0.03 0.00 90 1018.1
20260506071047 12 0 0.0 0.0 0.00 0.03 0.00 90 1017.9
20260506070540 12 0 0.0 0.0 0.00 0.03 0.00 90 1018.0
20260506062044 12 0 0.0 0.0 0.00 0.03 0.03 89 1017.8
20260506061551 12 0 0.0 0.0 0.00 0.03 0.03 89 1017.8
20260506061044 12 0 0.0 0.0 0.00 0.03 0.03 88 1017.9
20260506060544 12 0 0.0 0.0 0.00 0.03 0.03 88 1017.8
20260506051041 12 0 0.0 0.0 0.00 0.03 0.03 87 1017.9
20260506050543 12 0 0.0 0.0 0.00 0.03 0.03 87 1017.9
20260506045044 12 0 0.0 0.0 0.00 0.03 0.03 87 1017.8
20260506044552 12 0 0.0 0.0 0.00 0.03 0.03 87 1017.8
20260506044043 12 0 0.0 0.0 0.00 0.03 0.03 87 1017.8
20260506043544 12 0 0.0 0.0 0.00 0.03 0.03 87 1017.7
20260506043053 12 0 0.0 0.0 0.00 0.03 0.03 87 1017.7
20260506042548 12 0 0.0 0.0 0.00 0.03 0.03 86 1017.6
20260506042046 12 0 0.0 0.0 0.00 0.03 0.03 86 1017.6
20260506041556 12 0 0.0 0.0 0.00 0.03 0.03 86 1017.5
20260506041044 12 0 0.0 1.6 0.00 0.03 0.03 85 1017.4
20260506040544 12 0 0.0 1.6 0.00 0.03 0.03 85 1017.4
20260506040053 12 0 0.0 1.6 0.00 0.03 0.03 85 1017.4
20260506035544 12 161 0.0 3.2 0.00 0.03 0.03 85 1017.4
20260506035046 12 161 0.0 4.8 0.00 0.03 0.03 84 1017.3
20260506034553 12 0 0.0 4.8 0.00 0.03 0.03 84 1017.3
20260506034043 12 213 0.0 3.2 0.00 0.03 0.03 84 1017.3
20260506033543 12 0 0.0 1.6 0.00 0.03 0.03 84 1017.3
20260506033056 12 0 0.0 1.6 0.00 0.03 0.03 84 1017.1
20260506032543 12 248 0.0 1.6 0.00 0.03 0.03 84 1017.0
20260506032045 12 0 0.0 1.6 0.00 0.03 0.03 84 1016.8
20260506031553 13 0 0.0 1.6 0.00 0.03 0.03 83 1016.8
20260506031043 13 234 0.0 1.6 0.00 0.03 0.03 83 1016.9
20260506030543 13 246 0.0 1.6 0.00 0.03 0.03 83 1016.8
20260506030057 13 0 0.0 4.8 0.00 0.03 0.03 83 1016.9
20260506025542 13 148 0.0 4.8 0.00 0.03 0.03 83 1016.8
20260506025046 13 0 0.0 1.6 0.00 0.03 0.03 83 1016.7
20260506024603 13 296 0.0 1.6 0.00 0.03 0.03 83 1016.9
20260506024044 13 310 0.0 3.2 0.00 0.03 0.03 82 1016.6
20260506023544 13 292 0.0 3.2 0.00 0.03 0.03 82 1016.7
20260506023054 13 162 1.6 3.2 0.00 0.03 0.03 81 1016.7
20260506022543 13 185 0.0 4.8 0.00 0.03 0.03 82 1016.6
20260506022044 13 0 0.0 4.8 0.00 0.03 0.03 81 1016.6
20260506021558 13 0 0.0 3.2 0.00 0.03 0.03 81 1016.5
20260506021044 13 0 0.0 6.4 0.00 0.03 0.03 81 1016.6
20260506020542 13 283 0.0 6.4 0.00 0.03 0.03 80 1016.6
20260506020051 13 219 1.6 6.4 0.00 0.03 0.03 80 1016.6
20260506015546 13 0 0.0 4.8 0.00 0.03 0.03 80 1016.5
20260506015044 13 198 0.0 4.8 0.00 0.03 0.03 80 1016.5
20260506014553 13 298 1.6 4.8 0.00 0.03 0.03 80 1016.4
20260506014045 13 300 1.6 4.8 0.00 0.03 0.03 80 1016.4
20260506013543 13 232 0.0 6.4 0.00 0.03 0.03 80 1016.3
20260506013052 13 267 0.0 6.4 0.00 0.03 0.03 80 1016.3
20260506012543 14 312 1.6 6.4 0.00 0.03 0.03 79 1016.3
20260506012043 14 28 1.6 8.0 0.00 0.03 0.03 79 1016.3
20260506011620 14 347 0.0 8.0 0.00 0.03 0.03 79 1016.4
20260506011043 14 236 1.6 6.4 0.00 0.03 0.03 78 1016.3
20260506010543 14 294 0.0 6.4 0.00 0.03 0.03 79 1016.3
20260506010059 15 280 1.6 6.4 0.00 0.03 0.03 78 1016.3
20260506005543 15 0 0.0 4.8 0.00 0.03 0.03 78 1016.3
20260506005047 15 140 0.0 6.4 0.00 0.03 0.03 78 1016.4
20260506004555 15 269 1.6 6.4 0.00 0.03 0.03 78 1016.5
20260506004043 15 283 0.0 6.4 0.00 0.03 0.03 78 1016.4
20260506003543 15 264 1.6 6.4 0.00 0.03 0.03 78 1016.4
20260506003051 15 240 1.6 6.4 0.00 0.03 0.03 78 1016.4
20260506002543 15 239 1.6 8.0 0.00 0.03 0.03 78 1016.5
20260506002043 15 248 1.6 8.0 0.00 0.03 0.03 78 1016.4
20260506001550 15 178 1.6 8.0 0.00 0.03 0.03 78 1016.3
20260506001043 15 184 1.6 8.0 0.00 0.03 0.03 78 1016.3
20260506000541 15 15 3.2 9.7 0.00 0.03 0.03 77 1016.4
20260506000058 15 168 3.2 9.7 0.00 0.03 0.03 76 1016.4
20260505235543 15 260 1.6 6.4 0.00 0.03 0.03 76 1016.4
20260505235043 15 288 3.2 9.7 0.00 0.03 0.03 76 1016.3
20260505234553 15 210 3.2 9.7 0.00 0.03 0.03 75 1016.4
20260505234046 16 261 1.6 8.0 0.00 0.03 0.03 75 1016.3
20260505233543 16 248 3.2 9.7 0.00 0.03 0.03 75 1016.5